"Pseudo-MPEC" for P20SzGp

Created 2019 Oct 21 3:07:36 UT using Find_Orb

Click here for an explanation of pseudo-MPECs

 
 Astrometry: 
     P20SzGp  C2019 09 292R%Ea!-#++dAstrometryP:'SdKp?$!)@,L]'3=redacted;:EI?F51
     P20SzGp  C2019 09 29E0tRg8Q0R3c=Q5gpmBT4OK09BJ8kD]!6ix(tbZ-LQ9;?c.a=vjwGF51
     P20SzGp  C2019 09 29U6i%OZ#f6vYN*S7?;cpTXi=f+5=O2d*#.d,Bclickgr2=Okl3y)RF51
     P20SzGp  C2019 09 29nF#H$l?DQ.a'A1D4uP0=CZQ4Leg/=[Ut)Yg#Xr1?y,EePY`ZjW]gF51
     P20SzGp  C2019 10 0884!SiNq$)k.=2eu_P:^]`I3sdH=A_*3M`R')R-/woL04!oe-HV15F52
     P20SzGp  C2019 10 08)u]!pv_*Jy\Q(b)jK_xjtS99o!a%2vc-here4dforW0IaZ#C1+_nF52
     P20SzGp  C2019 10 08O1Oic?=3V24=kFmT-'d8BLLEI8*/explanation,Z@[#)U@Ehv1mF52

Station data:
(F51) Pan-STARRS 1, Haleakala  (N20.707235 W156.255910)  US/Hawaii.
   Observers N. Primak, A. Schultz, S. Watters, J. Thiel, T. Goggia. Measurer
   PS1 Science Consortium. 1.8-m Ritchey-Chrétien + CCD.
(F52) Pan-STARRS 2, Haleakala  (N20.707384 W156.255910)  US/Hawaii. 1.8-m
   Ritchey-Chrétien + CCD.

Orbital elements:  P20SzGp
   Perihelion 2019 Sep 9.379410 +/- 0.183 TT =  9:06:21 (JD 2458735.879410)
Epoch 2019 Oct  8.0 TT = JDT 2458764.5   Earth MOID: 0.0441   AutoNEOCP
M   8.21426761 +/- 0.7              (J2000 ecliptic)
n   0.28700552 +/- 0.0277           Peri.  183.85077 +/- 0.8
a   2.27619365 +/- 0.147            Node   161.32701 +/- 0.6
e   0.5378569 +/- 0.0286            Incl.    7.21429 +/- 0.23
P   3.43                   H 24.8   G  0.15   U 10.3  
q 1.05192700 +/- 0.00325    Q 3.50046031 +/- 0.302
From 7 observations 2019 Sept. 29-Oct. 8; mean residual 0".05
Residuals in arcseconds: 
190929 F51  .04+  .00     190929 F51  .02+  .05-    191008 F52  .04-  .00     
190929 F51  .05-  .05-    191008 F52  .04-  .05+    
190929 F51  .02-  .10+    191008 F52  .08+  .05-    

Ephemerides (geocentric):
Date (UTC) HH   RA              Dec         delta   r     elong  mag " sig PA
---- -- -- --  -------------   -----------  ------ ------ -----  --- ---- ---
2019 10 21 03  03 11 02.616   -16 15 34.35  .20144 1.1667 145.2 22.9  137  76
2019 10 21 04  03 11 03.240   -16 14 52.73  .20165 1.1669 145.2 22.9  138  76
2019 10 21 05  03 11 03.858   -16 14 11.11  .20186 1.1671 145.2 22.9  138  76
2019 10 21 06  03 11 04.470   -16 13 29.49  .20208 1.1673 145.2 22.9  139  76
2019 10 21 07  03 11 05.074   -16 12 47.88  .20229 1.1676 145.3 23.0  139  76
2019 10 21 08  03 11 05.672   -16 12 06.28  .20251 1.1678 145.3 23.0  140  76
2019 10 21 09  03 11 06.263   -16 11 24.67  .20272 1.1680 145.3 23.0  140  76
2019 10 21 10  03 11 06.847   -16 10 43.07  .20294 1.1682 145.3 23.0  140  76
2019 10 21 11  03 11 07.424   -16 10 01.48  .20315 1.1684 145.3 23.0  141  76
2019 10 21 12  03 11 07.995   -16 09 19.88  .20337 1.1686 145.4 23.0  141  76
2019 10 21 13  03 11 08.560   -16 08 38.29  .20358 1.1688 145.4 23.0  142  76
2019 10 21 14  03 11 09.117   -16 07 56.70  .20380 1.1690 145.4 23.0  142  76
2019 10 21 15  03 11 09.668   -16 07 15.12  .20401 1.1693 145.4 23.0  143  76
2019 10 21 16  03 11 10.213   -16 06 33.53  .20423 1.1695 145.5 23.0  143  76
2019 10 21 17  03 11 10.751   -16 05 51.95  .20444 1.1697 145.5 23.0  144  76
2019 10 21 18  03 11 11.282   -16 05 10.38  .20466 1.1699 145.5 23.0  144  76
2019 10 21 19  03 11 11.807   -16 04 28.80  .20487 1.1701 145.5 23.0  145  76
2019 10 21 20  03 11 12.326   -16 03 47.23  .20509 1.1703 145.5 23.0  145  76
2019 10 21 21  03 11 12.838   -16 03 05.66  .20530 1.1705 145.6 23.0  146  76
2019 10 21 22  03 11 13.343   -16 02 24.09  .20552 1.1707 145.6 23.0  146  76
2019 10 21 23  03 11 13.842   -16 01 42.52  .20574 1.1710 145.6 23.0  147  76
2019 10 22 00  03 11 14.335   -16 01 00.96  .20595 1.1712 145.6 23.0  147  76
2019 10 22 01  03 11 14.822   -16 00 19.39  .20617 1.1714 145.6 23.0  148  76
2019 10 22 02  03 11 15.302   -15 59 37.83  .20638 1.1716 145.7 23.0  148  76
2019 10 22 03  03 11 15.776   -15 58 56.27  .20660 1.1718 145.7 23.0  149  76
2019 10 22 04  03 11 16.243   -15 58 14.71  .20682 1.1720 145.7 23.0  149  76
2019 10 22 05  03 11 16.705   -15 57 33.16  .20703 1.1722 145.7 23.0  150  76
2019 10 22 06  03 11 17.160   -15 56 51.60  .20725 1.1725 145.7 23.0  150  76
2019 10 22 07  03 11 17.609   -15 56 10.05  .20747 1.1727 145.8 23.0  151  76
2019 10 22 08  03 11 18.051   -15 55 28.50  .20769 1.1729 145.8 23.0  151  76
2019 10 22 09  03 11 18.488   -15 54 46.95  .20790 1.1731 145.8 23.0  152  76
2019 10 22 10  03 11 18.918   -15 54 05.40  .20812 1.1733 145.8 23.0  152  76
2019 10 22 11  03 11 19.343   -15 53 23.85  .20834 1.1735 145.8 23.0  152  76
2019 10 22 12  03 11 19.761   -15 52 42.31  .20855 1.1737 145.9 23.0  153  76
2019 10 22 13  03 11 20.173   -15 52 00.76  .20877 1.1740 145.9 23.0  153  76
2019 10 22 14  03 11 20.579   -15 51 19.22  .20899 1.1742 145.9 23.0  154  77
2019 10 22 15  03 11 20.979   -15 50 37.67  .20921 1.1744 145.9 23.0  154  77
2019 10 22 16  03 11 21.373   -15 49 56.13  .20942 1.1746 145.9 23.0  155  77
2019 10 22 17  03 11 21.761   -15 49 14.59  .20964 1.1748 146.0 23.0  155  77
2019 10 22 18  03 11 22.144   -15 48 33.04  .20986 1.1750 146.0 23.0  156  77
2019 10 22 19  03 11 22.520   -15 47 51.50  .21008 1.1753 146.0 23.0  156  77
2019 10 22 20  03 11 22.890   -15 47 09.96  .21030 1.1755 146.0 23.0  157  77
2019 10 22 21  03 11 23.254   -15 46 28.42  .21052 1.1757 146.0 23.0  157  77
2019 10 22 22  03 11 23.613   -15 45 46.88  .21073 1.1759 146.1 23.0  158  77
2019 10 22 23  03 11 23.966   -15 45 05.34  .21095 1.1761 146.1 23.0  158  77
2019 10 23 00  03 11 24.313   -15 44 23.80  .21117 1.1763 146.1 23.0  159  77
2019 10 23 01  03 11 24.654   -15 43 42.26  .21139 1.1766 146.1 23.0  159  77
2019 10 23 02  03 11 24.989   -15 43 00.72  .21161 1.1768 146.1 23.0  160  77